User: anonymous
Location: Unspecified
(0.0000°N, 0.0000°E)
Time: 13:08:50
(UTC+00:00)
Language:

Aussat K2 - Orbit

View from above orbital plane
View from above orbital plane
View from above satellite
View from above satellite

Ground track
Ground track

The orbit data is extracted from the following two-line orbital elements,

1 16275U 85109C   14210.25886039 -.00000075  00000-0  00000+0 0  4888
2 16275 014.6605 020.0549 0005361 152.4543 042.3431 00.99955484 94692
Epoch (UTC): 29 July 2014 06:12:45
Eccentricity: 0.0005361
inclination: 14.6605°
perigee height: 35852 km
apogee height: 35898 km
right ascension of ascending node: 20.0549°
argument of perigee: 152.4543°
revolutions per day: 0.99955484
mean anomaly at epoch: 42.3431°
orbit number at epoch: 9469

The dashed part of the orbit path shows where the satellite is in the earth's shadow,  

DLR